Find Starlink 34858

NORAD ID: 65023 Int'l Des: 2025-161 Owner: SPXS Country: US Constellation: starlink operational
LEOCIRCULAR

Live Position

Loading 3D Globe...

About Starlink 34858

Description loading...

Upcoming Passes

Passes for default location (London). Set your location on the main map for personalized predictions.

Altitude History

Loading altitude history...

Two-Line Element Set

1 65023U 25161J 26106.73881352 .00008160 00000-0 28733-3 0 9994
2 65023 53.1582 117.5877 0001477 87.6115 272.5055 15.30199446 41143
Epoch: Apr 16, 2026 • Age: 22 hours

Current Status

Altitude 478.3 km
Velocity 7.63 km/s
Sub-Earth Point 41.86°N, 70.56°E
Launch Date Jul 30, 2025
Age 0.7 years
Type internet

Technical Details

Classification Payload
Mass 575.00 kg
Dry Mass 530.00 kg
Total Mass 575.00 kg
Length 0.30 m
Diameter 4.10 m
Span 29.00 m
Shape Box + pan
Manufacturer SPXS
Bus Type Starlink V2MO
Phase Status In Orbit
Owner/State SPXS/US

Most Searched